Regional Weather Roundup
Issued by NWS

Home | Current Version | Previous Version | Text Only | Print | Product List | Glossary Off
Versions: 1 2 3 4 5 6 7 8 9 10 11 12 13 14 15 16 17 18 19 20 21 22 23 24 25 26 27 28 29 30 31 32 33 34 35 36 37 38 39 40 41 42 43 44 45 46 47 48 49 50

000
ASUS45 KTFX 260719
RWRMT
MONTANA HOURLY WEATHER ROUNDUP
NATIONAL WEATHER SERVICE GREAT FALLS MT
1219 AM MST WED NOV 26 2014

NOTE: "FAIR" INDICATES FEW OR NO CLOUDS BELOW 12000 FEET WITH NO
SIGNIFICANT WEATHER AND/OR OBSTRUCTIONS TO VISIBILITY.

* THESE STATIONS ARE NOT UNDER NWS QUALITY CONTROL. THEY DO NOT
   REPORT WEATHER SUCH AS PRECIPITATION OR FOG.

MTZ001>007-043-260800-
WEST OF THE DIVIDE
CITY           SKY/WX    TMP DP  RH WIND       PRES   REMARKS
KALISPELL      LGT SNOW  34  30  85 CALM      30.15S VSB 1 1/2
MISSOULA       LGT SNOW  32  32 100 CALM      30.16S VSB 1
BUTTE          LGT SNOW  27  27 100 CALM      30.09S VSB 1
MULLAN PASS    FRZ RAIN  30  27  89 VRB5      30.05S VSB 1/2  WCI  25
* ESSEX        N/A       31  29  92 SE4        N/A
* EUREKA APT   CLOUDY    34  32  92 SE5       30.18S WCI  29
* LIBBY APT    CLOUDY    32  30  92 CALM      30.18S VSB 2
* LINCOLN      N/A       29  28  96 S2         N/A
* LOOKOUT PASS N/A       29  29 100 S3         N/A
* PLAINS APT   CLOUDY    32  28  85 N/A        N/A
* POLSON       N/A       30  30 100 N/A        N/A
* RONAN APT    CLOUDY    32  30  92 N/A        N/A
* SEELEY LAKE  N/A       29  28  96 N/A        N/A
* THOMP F APT  CLOUDY    32  30  92 N1         N/A
* YAAK HILL    N/A       32  30  92 N/A        N/A
$$

MTZ008-052>055-260800-
SOUTHWEST MONTANA
CITY           SKY/WX    TMP DP  RH WIND       PRES   REMARKS
BOZEMAN        LGT SNOW  28  27  96 NW5       30.14S WCI  22
DILLON         LGT SNOW  30  28  92 E8        30.08F WCI  22
* W YELLOWSTON PTCLDY    32  31  96 SW3G9      N/A
* ENNIS APT    MOCLDY    28  28 100 N/A        N/A
* THREE FORKS  CLOUDY    30   5  34 N/A        N/A
* TWIN BRIDGES MOCLDY    30  27  89 N5         N/A   WCI  25
* BOULDER HILL N/A       26  23  88 S4         N/A
* MONIDA PASS  N/A       31  31 100 SE6        N/A   WCI  25
* RAYNOLDS PAS N/A       27  22  81 N/A        N/A
* WHITEHALL    N/A       31  30  96 NE2        N/A
* WISE RIVER   N/A       28  27  96 SE5        N/A   WCI  22
$$

MTZ009>010-012-014-046-048-049-054-260800-
EAST SLOPES AND CENTRAL MONTANA
CITY           SKY/WX    TMP DP  RH WIND       PRES   REMARKS
CUT BANK       LGT SNOW  30  21  69 SE6       30.12S WCI  24
GREAT FALLS    CLOUDY    30  25  82 S9        30.14R WCI  22
HELENA         LGT SNOW  32  30  92 SE6       30.14S VSB 1    WCI  26
MALMSTROM AFB  CLOUDY    30  27  89 SE5       30.17R WCI  25
* CONRAD       CLOUDY    28  25  89 CALM       N/A
* EAST GLACIER N/A       24  20  85 E1         N/A
* MONARCH      N/A       22  19  88 E2         N/A
* PENDROY      N/A       27  26  96 S6         N/A   WCI  20
* SAINT MARY   N/A       30  20  66 SE6G16     N/A   WCI  24
* SWEET GRASS  N/A       29  22  75 SW6        N/A   WCI  23
* WHITE SULPH  N/A       24  23  96 S7         N/A   WCI  16
$$

MTZ011-013-016-021-035-040-045-047-050-051-260800-
NORTH CENTRAL MONTANA
CITY           SKY/WX    TMP DP  RH WIND       PRES   REMARKS
HAVRE          CLOUDY    28  25  89 NW5       30.18S WCI  22
LEWISTOWN      LGT SNOW  28  25  89 W9        30.15R WCI  19
* N BAR RANCH  CLOUDY    27  21  78 NW9       30.13R WCI  18
* CHINOOK      CLOUDY    28  25  89 NW5       30.19S WCI  22
* FORT BENTON  CLOUDY    30  25  82 CALM      30.20S
* MALTA APT    CLOUDY    27  19  72 N/A        N/A
* CHESTER      N/A       29  24  82 SE3        N/A
* DENTON       N/A       30  23  75 W11        N/A   WCI  21
* JUDITH GAP   N/A       25  23  92 NW6        N/A   WCI  18
* LOMA         N/A       32  26  79 NW2        N/A
$$

MTZ017>020-022>027-061-062-260800-
NORTHEAST MONTANA
CITY           SKY/WX    TMP DP  RH WIND       PRES   REMARKS
GLASGOW        CLOUDY    21  16  81 NE8       30.21R WCI  11
GLENDIVE       CLOUDY    25  19  78 W8        30.20R WCI  16
JORDAN         CLOUDY    27  23  85 SW3       30.17F
SIDNEY         CLOUDY    21  18  88 NE6       30.23R WCI  13
WOLF POINT     CLOUDY    23  18  81 N8        30.24R WCI  14
* BEAVER HILL  N/A       21  19  92 N6         N/A   WCI  13
* CIRCLE       N/A       24  21  88 N/A        N/A
* LINDSAY DVD  N/A       20  19  96 NW4        N/A
* NAVAJO       N/A       13  11  92 N1G8       N/A
* PLENTYWOOD A MOCLDY    12   9  88 N5        30.20R WCI   4
* POPLAR APT   MOCLDY    21  18  88 N/A       30.23R
* SACO         N/A       23  18  81 N3         N/A
* SCOBEY APT   CLOUDY    14   7  73 NW5        N/A   WCI   6
$$

MTZ028>042-056>058-260800-
SOUTHCENTRAL AND SOUTHEAST MONTANA
CITY           SKY/WX    TMP DP  RH WIND       PRES   REMARKS
BAKER          CLOUDY    25  21  85 NW9       30.16R WCI  16
BILLINGS       CLOUDY    32  19  59 CALM      30.18R
LIVINGSTON     LGT SNOW  27  25  92 E6        30.14R VSB 1    WCI  20
MILES CITY     CLOUDY    27  23  85 CALM      30.19R
* BIG TIMBER A CLOUDY    27  25  92 SE3       30.17R VSB 1
* FORSYTH APT  CLOUDY    28  25  89 CALM      30.19R
* LAUREL APT   CLOUDY    28  21  75 N/A        N/A
* ALZADA       N/A       25  22  88 NW9        N/A   WCI  16
* LAME DEER    N/A       24  22  92 NW3        N/A
* REED POINT   N/A       29  28  96 W2         N/A
* ROSCOE HILL  N/A       23  19  85 N/A        N/A
$$

REGIONAL REPORTS...DAKOTAS
CITY           SKY/WX    TMP DP  RH WIND       PRES   REMARKS
WILLISTON      CLOUDY    16  10  77 CALM      30.22R
DICKINSON      CLOUDY    19  16  88 N10       30.13R WCI   8
BEACH          CLOUDY    21  19  92 NW8       30.17R WCI  11
CROSBY         LGT SNOW  12  10  92 NW9       30.23R VSB 2 1/2
TIOGA          CLOUDY     9   7  91 E5        30.20R
BISMARCK       CLOUDY    16   9  74 N8        30.17R WCI   5
GRAND FORKS    MOCLDY     9   3  76 N17       30.20R WCI  -9
FARGO          HAZE      18  12  77 N22       30.10R WCI   1
BUFFALO SD     MOCLDY    27  21  78 NW10      30.06R WCI  18
RAPID CITY     CLOUDY    27  21  78 N31G40    30.07R WCI  11
$$

REGIONAL REPORTS...WYOMING/IDAHO/WASHINGTON
CITY           SKY/WX    TMP DP  RH WIND       PRES   REMARKS
GILLETTE       CLOUDY    27  23  85 NW14      30.12R WCI  16
SHERIDAN       CLOUDY    28  21  75 NW15      30.15R WCI  16
CODY           CLOUDY    25  25 100 CALM      30.14S
YELLOWSTONE LA CLOUDY    30  28  92 CALM      30.08S
SALMON         CLOUDY    34  32  92 CALM      30.14R
MULLAN PASS    FRZ RAIN  30  27  89 VRB5      30.05S VSB 1/2  WCI  25
SAND POINT     N/A       32  32 100 CALM      30.17F
SPOKANE        FOG       34  34 100 NE5       30.15F VSB 1/2  WCI  29
$$

REGIONAL REPORTS...ALBERTA
CITY           SKY/WX    TMP DP  RH WIND       PRES   REMARKS
CALGARY        LGT SNOW  25  21  85 S3        30.11S
LETHBRIDGE     CLOUDY    28  27  96 E8        30.14S WCI  20
MEDICINE HAT   CLOUDY    25  23  92 NE3       30.20R
EDMONTON       LGT SNOW  16  12  84 E7        30.18R WCI   6
WATERTON GATE  N/A       25  21  85 NE1        N/A
CARDSTON       N/A       27  23  85 SE2        N/A
MILK RIVER     N/A       27  25  92 S2         N/A
$$

REGIONAL REPORTS...SASKATCHEWAN
CITY           SKY/WX    TMP DP  RH WIND       PRES   REMARKS
SWIFT CURRENT  LGT SNOW  12   9  88 E5        30.18R WCI   4
REGINA         LGT SNOW   7   1  76 N7        30.26R WCI  -5
VAL MARIE      N/A       23  19  85 W2         N/A
ASSINIBOIA     N/A        9   5  84 N5         N/A
CORONACH       N/A       12   9  88 NW6        N/A   WCI   2

$$




USA.gov is the U.S. government's official web portal to all federal, state and local government web resources and services.